Location: Dulzura
(32.6442°N, 116.7814°W)
Time: 14:20:06
(UTC+00:00)

Cosmos 1428 Rocket - Pass Details

Date: 07 December 2021
Orbit: 949 x 987 km, 82.9° (Epoch: 19 January)

Event Time Altitude Azimuth Distance (km) Brightness Sun altitude
Rises 14:03:16 0° 192° (SSW) 3,631 7.6 -7.2°
Reaches altitude 10° 14:05:47 10° 195° (SSW) 2,683 6.9 -6.7°
Maximum altitude 14:11:52 66° 277° (W) 1,034 4.5 -5.5°
Drops below altitude 10° 14:17:57 10° 360° (N) 2,679 6.6 -4.3°
Sets 14:20:29 0° 3° (N) 3,625 7.3 -3.9°
